Wind_Speed
47 42 38 42 42 40 39 36 40 44 43 45 43 34 33 37 36 36 31 31 30 19 20 29 24 18 21 20 19 20 21 24 9 3 6 7 14 18 21 22 25 28 28 30
45 39 48 46 45 38 36 33 37 38 45 44 41 53 33 36 29 29 34 32 32 25 20 30 32 23 20 18 20 19 19 23 13 4 1 2 6 11 16 17 20 23 26 27
50 56 53 49 46 40 37 35 35 34 45 55 50 54 41 42 29 22 29 38 35 27 24 32 23 24 24 21 24 21 20 20 17 8 4 3 1 4 8 12 15 18 22 24
58 62 54 51 47 44 41 40 41 36 44 54 54 53 58 36 38 39 32 22 32 32 31 35 30 26 28 28 28 21 20 20 19 12 7 7 5 2 2 5 9 13 17 20
65 67 60 55 52 48 45 46 45 39 39 54 55 55 51 48 44 49 44 36 37 36 37 40 40 39 35 32 32 25 22 19 20 13 13 9 10 7 4 0 4 7 11 15
74 72 64 60 60 55 56 52 50 43 38 40 53 49 44 52 45 50 45 52 46 39 42 42 37 37 35 37 36 28 25 23 20 17 15 15 13 12 9 6 2 2 7 10
78 75 70 67 65 63 62 58 53 47 41 38 47 61 55 52 49 51 44 53 46 49 48 48 49 44 39 37 35 30 27 24 22 20 17 18 18 16 13 10 7 4 1 5
81 79 74 70 69 67 67 64 58 52 49 46 48 45 61 65 57 55 59 51 62 56 55 53 51 47 42 50 37 32 27 27 24 19 18 21 21 20 18 14 11 9 6 3
84 78 80 81 77 77 70 70 63 61 56 55 53 53 53 53 67 73 58 41 56 63 61 63 55 55 53 51 46 39 33 33 29 24 19 22 23 24 23 19 15 13 11 8
87 87 87 82 82 80 78 71 70 66 62 60 58 58 51 46 51 50 54 63 66 53 54 60 62 55 50 52 53 53 42 40 34 29 23 24 25 26 26 24 21 18 16 13
95 93 88 89 88 80 78 75 73 68 66 64 62 62 61 56 54 55 56 54 48 44 52 59 59 64 55 59 61 55 50 47 41 34 29 28 29 28 30 29 28 24 21 18
98 94 92 89 86 83 82 78 77 73 69 70 67 67 68 64 62 62 61 53 49 44 40 48 57 63 65 57 53 52 48 47 45 37 31 31 34 32 32 33 33 30 27 23
98 96 93 94 93 91 86 81 80 78 77 71 69 69 69 69 68 64 67 51 49 40 43 39 42 60 65 65 65 62 50 48 46 35 33 35 37 37 35 36 36 34 31 28
101 99 96 91 90 86 86 84 82 81 79 73 71 76 74 76 72 69 73 61 52 43 49 46 41 43 53 54 57 54 46 46 42 36 36 39 40 39 39 37 39 38 35 32
100 98 95 88 85 87 89 88 87 89 83 78 77 80 83 81 76 80 69 65 56 49 49 51 46 40 42 48 52 55 49 44 39 38 41 43 42 42 41 42 42 40 40 38
101 100 98 93 90 95 97 93 91 92 89 82 85 86 88 83 87 78 70 68 61 53 52 54 51 41 37 44 51 53 49 45 42 44 45 44 43 42 44 44 45 43 43 42
104 101 100 95 99 97 98 96 96 93 92 92 93 93 86 93 87 74 72 66 60 55 51 53 48 44 33 40 48 50 48 45 48 49 47 46 45 46 48 49 48 48 46 45
103 105 101 95 103 105 100 102 100 99 97 94 100 95 89 92 87 81 78 70 52 58 52 60 50 46 41 39 47 52 50 49 50 51 50 48 48 50 50 50 51 51 49 45
101 100 103 100 107 108 109 108 103 100 94 95 91 94 92 83 81 80 83 76 54 46 56 61 54 48 46 44 45 52 52 51 51 53 53 52 51 51 51 51 55 55 52 48
90 97 99 101 110 114 113 110 107 103 98 97 98 98 95 84 85 74 80 82 66 46 57 64 62 54 51 49 47 48 49 52 53 54 54 53 50 50 51 54 55 57 55 52
81 89 96 101 109 113 113 110 110 109 103 102 100 98 99 93 88 86 80 81 70 69 68 73 65 59 54 52 49 48 50 53 55 54 49 50 50 50 49 49 48 46 45 46
70 77 90 103 111 114 114 114 113 114 111 107 102 100 99 96 92 88 83 81 79 72 72 77 69 62 59 55 53 52 56 52 53 52 48 49 51 50 51 51 50 49 48 46
65 73 81 96 110 114 115 119 114 114 113 111 107 102 101 102 99 97 93 86 82 83 85 85 76 69 65 60 57 57 57 55 49 48 46 43 45 46 48 49 51 53 49 45
64 69 76 85 97 108 114 117 120 117 117 108 105 107 107 109 107 101 95 91 87 82 85 87 82 73 70 66 63 60 60 59 56 53 52 48 47 44 48 46 48 46 48 47
54 66 66 77 85 96 105 110 112 112 116 117 110 109 112 112 113 107 98 93 88 84 84 88 87 77 73 72 69 65 63 63 60 56 56 55 53 52 48 46 46 45 45 44
55 61 64 73 81 85 94 104 111 111 112 110 113 113 113 114 116 111 101 95 91 88 86 87 90 85 77 76 73 71 67 66 65 62 59 61 60 58 54 49 44 44 44 41
Wind_Direction
230 230 232 233 237 237 239 236 237 238 234 231 229 220 225 244 250 257 252 252 260 257 247 257 271 271 303 315 326 348 357 2 3 57 90 80 82 84 79 74 75 80 83 84
231 229 232 231 235 233 236 234 235 226 224 224 217 213 232 234 233 248 248 248 255 256 238 249 259 274 276 297 314 327 345 356 344 360 136 96 79 86 89 86 78 80 82 81
228 231 230 229 233 231 232 232 236 221 220 216 217 217 220 222 227 226 241 233 245 240 232 229 236 263 282 285 296 308 317 340 346 329 278 217 285 87 78 80 79 79 81 83
228 236 231 232 233 232 232 233 232 223 219 219 213 213 218 216 228 211 219 238 221 225 221 240 247 264 279 284 285 294 305 322 342 295 311 238 225 232 81 66 75 74 79 79
234 235 233 231 234 232 231 231 234 233 220 216 216 212 222 220 226 210 223 237 240 246 230 242 254 264 271 271 274 284 295 304 316 296 285 256 226 226 229 356 64 68 72 82
236 235 232 233 233 231 232 229 232 229 227 220 211 209 206 212 213 205 216 234 238 234 237 248 256 261 261 265 270 275 282 291 298 312 267 271 228 229 234 240 212 81 83 82
236 235 234 234 236 235 235 233 231 230 228 224 222 213 207 210 219 222 226 231 233 240 240 256 260 264 262 262 265 266 274 279 291 301 270 261 242 229 226 232 233 200 143 100
235 235 235 235 235 236 236 235 232 231 227 222 225 220 219 219 219 223 228 230 236 238 250 255 256 255 258 254 254 258 266 272 281 291 277 255 243 235 226 221 229 233 223 208
234 234 233 232 231 232 233 233 231 228 227 226 226 226 221 223 229 230 229 233 237 251 249 247 249 257 250 248 246 255 265 272 276 279 268 248 248 237 231 224 226 233 244 240
232 232 232 231 231 232 233 231 230 228 228 228 229 232 232 227 232 234 236 238 246 245 244 254 251 243 246 246 249 253 263 268 270 271 267 244 250 240 236 231 228 229 241 245
230 231 231 231 232 232 232 234 234 231 227 230 230 231 233 227 232 234 232 235 237 240 245 244 241 240 247 248 249 253 261 266 265 267 268 249 239 245 240 237 236 233 233 236
231 231 231 232 232 232 232 230 231 232 230 231 231 232 238 232 228 234 238 235 235 238 244 239 237 244 242 241 249 254 257 260 263 262 260 247 235 240 243 244 239 242 243 244
230 229 229 229 230 230 231 232 232 231 230 230 230 234 235 238 235 234 241 241 240 239 247 247 243 243 247 246 250 253 256 257 262 250 254 240 235 237 241 246 247 243 245 249
228 227 228 230 230 231 232 231 233 231 230 230 231 232 231 235 236 237 240 237 237 235 244 248 244 251 251 247 245 247 248 251 251 245 246 235 235 237 240 246 249 249 248 249
227 227 227 226 227 227 229 229 229 229 227 227 229 230 230 232 231 235 237 240 240 233 241 249 252 250 251 245 236 242 245 247 244 243 240 238 233 237 238 242 247 250 249 252
224 223 224 222 224 226 225 225 226 229 226 222 227 229 231 229 234 239 238 239 238 234 237 242 252 256 254 242 242 240 239 243 245 241 237 237 236 237 238 239 243 247 251 252
225 223 223 220 224 224 226 226 225 225 225 222 223 227 226 233 232 235 239 235 240 240 235 243 246 255 256 247 242 241 240 239 234 237 236 236 237 237 238 240 242 245 246 249
226 225 222 219 224 225 223 224 225 223 225 227 229 228 231 233 236 234 235 239 240 238 234 242 241 247 252 244 244 241 237 233 232 240 239 239 239 240 241 240 240 246 248 250
221 220 222 220 224 225 225 226 223 225 225 225 230 233 232 233 238 238 236 234 231 232 232 240 242 242 248 248 243 241 241 239 238 239 242 239 239 241 241 241 238 241 244 248
219 218 216 218 221 223 225 225 227 225 221 225 227 229 230 227 226 231 232 233 226 218 230 236 237 237 242 245 243 243 241 242 241 240 241 241 239 240 243 242 240 242 246 251
218 214 212 214 219 222 223 223 225 226 223 223 225 227 231 230 227 227 231 232 226 228 229 234 235 236 236 241 244 239 240 238 240 237 235 238 237 235 238 239 237 238 243 248
219 218 213 211 214 217 220 221 222 225 224 223 223 226 228 230 230 230 229 232 229 223 226 234 236 235 236 237 239 236 240 242 246 239 234 237 236 237 239 238 241 239 236 237
218 218 216 216 214 217 217 221 221 224 227 224 222 223 229 230 229 229 226 224 227 225 226 233 231 230 233 235 237 237 240 242 242 238 233 234 240 242 242 239 241 242 244 247
221 217 215 217 218 219 220 222 222 221 226 227 224 223 225 228 230 228 228 227 227 228 228 232 230 227 230 232 233 236 237 239 242 241 234 231 241 245 246 250 245 244 247 249
222 218 216 218 219 218 221 224 227 226 226 227 226 225 226 228 232 230 227 228 227 227 228 232 233 228 227 231 233 233 234 237 241 240 239 233 236 241 245 245 245 243 243 247
221 225 215 214 216 220 220 223 225 227 227 227 228 229 228 228 233 231 228 227 228 227 228 230 233 231 225 229 231 234 234 235 238 241 240 238 237 239 238 241 246 246 246 244
Height
10929 10938 10943 10941 10942 10950 10956 10960 10963 10971 10973 10981 10991 10993 10992 10998 11003 11006 11007 11011 11015 11018 11025 11029 11030 11033 11035 11035 11036 11036 11036 11035 11033 11032 11033 11033 11033 11031 11027 11025 11022 11020 11018 11014
10924 10933 10925 10930 10934 10944 10948 10953 10953 10962 10963 10974 10979 10980 10980 10990 10997 11000 11002 11005 11009 11012 11018 11025 11028 11030 11033 11034 11034 11036 11036 11035 11034 11033 11032 11032 11033 11034 11034 11032 11029 11026 11023 11020
10913 10909 10915 10924 10927 10937 10942 10945 10947 10954 10956 10962 10969 10973 10976 10984 10991 10997 10998 11002 11005 11006 11012 11018 11024 11026 11029 11032 11033 11034 11035 11035 11034 11033 11032 11031 11032 11032 11033 11033 11031 11030 11028 11025
10898 10895 10910 10916 10922 10929 10934 10936 10938 10944 10948 10954 10959 10965 10968 10977 10984 10987 10992 10995 10999 11001 11007 11011 11018 11023 11027 11029 11031 11033 11033 11033 11034 11033 11032 11032 11031 11031 11031 11032 11031 11029 11028 11027
10886 10884 10897 10907 10913 10918 10924 10926 10927 10937 10941 10946 10951 10959 10964 10973 10977 10982 10985 10991 10993 10996 11001 11005 11013 11019 11023 11025 11026 11030 11031 11032 11032 11032 11032 11031 11031 11031 11031 11031 11031 11030 11028 11028
10863 10870 10886 10896 10897 10906 10907 10915 10919 10928 10935 10943 10951 10956 10963 10964 10969 10978 10980 10982 10984 10989 10996 11001 11007 11012 11018 11021 11022 11026 11027 11029 11030 11031 11030 11031 11031 11031 11031 11031 11030 11030 11029 11028
10845 10859 10871 10879 10887 10893 10896 10904 10912 10921 10929 10936 10939 10949 10960 10955 10960 10968 10973 10973 10978 10980 10987 10995 11001 11007 11010 11014 11017 11021 11022 11024 11026 11028 11028 11029 11030 11030 11030 11031 11031 11031 11030 11029
10831 10841 10856 10867 10873 10878 10882 10890 10903 10913 10919 10926 10927 10937 10945 10943 10954 10958 10959 10967 10972 10974 10978 10984 10992 10998 11003 11005 11011 11015 11017 11019 11022 11024 11025 11026 11027 11028 11028 11029 11031 11031 11031 11030
10811 10826 10832 10837 10851 10854 10870 10874 10891 10898 10906 10911 10917 10921 10927 10938 10941 10946 10953 10963 10966 10966 10969 10973 10981 10989 10993 10997 11002 11007 11012 11014 11017 11018 11020 11023 11023 11025 11026 11027 11029 11030 11030 11031
10795 10798 10809 10825 10830 10840 10849 10865 10872 10884 10895 10901 10907 10911 10924 10933 10934 10941 10945 10949 10955 10965 10965 10965 10972 10979 10984 10988 10991 10998 11003 11008 11010 11012 11015 11018 11020 11021 11022 11023 11025 11026 11028 11028
10765 10775 10793 10802 10811 10833 10841 10850 10861 10874 10883 10890 10896 10900 10903 10917 10921 10923 10928 10934 10942 10953 10954 10955 10960 10965 10974 10978 10981 10988 10996 10999 11003 11005 11008 11011 11014 11015 11017 11019 11020 11021 11023 11024
10746 10763 10770 10792 10804 10814 10822 10834 10844 10856 10869 10875 10882 10888 10888 10899 10907 10905 10908 10925 10933 10940 10941 10943 10951 10951 10960 10967 10971 10977 10985 10989 10993 10997 11000 11003 11006 11009 11011 11013 11015 11016 11018 11019
10728 10741 10754 10762 10779 10790 10805 10821 10830 10840 10846 10862 10869 10873 10878 10880 10889 10899 10896 10916 10923 10935 10932 10938 10945 10944 10945 10955 10962 10970 10973 10981 10983 10987 10991 10994 10997 11001 11003 11007 11009 11010 11012 11013
10698 10718 10734 10750 10771 10781 10789 10799 10809 10820 10835 10849 10858 10851 10862 10858 10875 10886 10883 10903 10914 10924 10921 10923 10935 10936 10938 10945 10956 10960 10964 10968 10973 10977 10981 10985 10988 10991 10996 10999 11002 11004 11006 11007
10676 10699 10716 10735 10751 10753 10764 10775 10782 10794 10814 10828 10835 10823 10834 10845 10857 10853 10879 10889 10903 10914 10915 10910 10918 10928 10928 10934 10942 10948 10954 10956 10963 10966 10971 10974 10977 10982 10986 10990 10994 10996 10999 11000
10651 10671 10687 10710 10718 10726 10734 10752 10765 10779 10791 10809 10801 10798 10808 10836 10832 10852 10873 10877 10889 10897 10902 10904 10905 10913 10922 10923 10929 10936 10942 10947 10950 10956 10959 10964 10968 10972 10976 10980 10983 10988 10990 10992
10631 10649 10665 10693 10691 10704 10716 10734 10745 10758 10761 10773 10764 10771 10799 10804 10826 10846 10859 10871 10879 10887 10889 10895 10901 10903 10911 10915 10920 10926 10934 10938 10941 10944 10949 10953 10957 10960 10964 10968 10973 10976 10979 10983
10610 10625 10646 10675 10670 10677 10699 10698 10712 10724 10744 10757 10757 10772 10792 10800 10817 10837 10849 10861 10872 10874 10879 10881 10891 10896 10901 10906 10912 10917 10924 10928 10932 10933 10938 10942 10946 10949 10952 10958 10963 10966 10969 10973
10573 10599 10626 10651 10643 10655 10665 10675 10690 10706 10738 10746 10757 10765 10780 10795 10801 10815 10832 10843 10855 10858 10864 10869 10878 10886 10890 10895 10900 10902 10907 10914 10918 10921 10926 10932 10935 10938 10942 10947 10949 10952 10958 10963
10549 10573 10597 10620 10616 10625 10637 10662 10679 10696 10718 10725 10734 10740 10753 10776 10786 10786 10804 10816 10840 10849 10849 10853 10861 10872 10878 10882 10885 10889 10897 10902 10908 10914 10917 10921 10924 10927 10931 10934 10938 10942 10949 10953
10530 10547 10569 10583 10589 10606 10621 10642 10658 10669 10694 10704 10713 10725 10731 10750 10770 10781 10790 10804 10822 10832 10834 10837 10848 10859 10866 10870 10873 10879 10884 10889 10894 10900 10903 10907 10910 10914 10918 10922 10926 10931 10937 10941
10521 10532 10548 10555 10563 10577 10597 10617 10633 10643 10663 10680 10693 10706 10716 10730 10745 10761 10779 10789 10803 10816 10817 10819 10834 10846 10853 10859 10864 10867 10870 10877 10882 10887 10891 10894 10898 10902 10907 10911 10915 10919 10923 10928
10508 10518 10531 10541 10546 10561 10579 10590 10616 10627 10640 10655 10671 10687 10699 10706 10720 10734 10748 10765 10776 10790 10799 10801 10820 10832 10838 10845 10851 10854 10859 10864 10870 10874 10880 10885 10890 10893 10897 10901 10905 10910 10914 10918
10487 10504 10518 10528 10540 10553 10563 10573 10589 10607 10617 10637 10656 10666 10676 10682 10690 10711 10730 10746 10760 10775 10784 10790 10802 10814 10821 10828 10835 10841 10847 10851 10856 10863 10868 10872 10879 10884 10889 10892 10896 10900 10905 10908
10477 10489 10507 10517 10530 10545 10556 10564 10579 10596 10606 10617 10632 10646 10653 10664 10672 10690 10708 10724 10742 10753 10763 10771 10781 10796 10806 10813 10820 10827 10832 10837 10843 10849 10855 10861 10866 10871 10877 10881 10885 10889 10892 10897
10473 10476 10491 10498 10509 10526 10540 10551 10560 10571 10587 10604 10614 10626 10633 10644 10651 10668 10692 10708 10721 10733 10743 10752 10761 10775 10789 10797 10805 10811 10817 10823 10828 10834 10841 10847 10852 10856 10863 10870 10875 10878 10880 10885